EHI
0 0 0 0 0 0 0 0 0 0 0 0 0 0 0 0 0 0 0 0 0 0 0 0 0 0 0 0 0 0 0 0 0 0 0 0 0 0 0 0 0 0 0 0
0 0 0 0 0 0 0 0 0 0 0 0 0 0 0 0 0 0 0 0 0 0 0 0 0 0 0 0 0 0 0 0 0 0 0 0 0 0 0 0 0 0 0 0
0 0 0 0 0 0 0 0 0 0 0 0 0 0 0 0 0 0 0 0 0 0 0 0 0 0 0 0 0 0 0 0 0 0 0 0 0 0 0 0 0 0 0 0
0 0 0 0 0 0 0 0 0 0 0 0 0 0 0 0 0 0 0 0 0 0 0 0 0 0 0 0 0 0 0 0 0 0 0 0 0 0 0 0 0 0 0 0
0 0 0 0 0 0 0 0 0 0 0 0 0 0 0 0 0 0 0 0 0 0 0 0 0 0 0 0 0 0 0 0 0 0 0 0 0 0 0 0 0 0 0 0
0 0 0 0 0 0 0 0 0 0 0 0 0 0 0 0 0 0 0 0 0 0 0 0 0 0 0 0 0 0 0 0 0 0 0 0 0 0 0 0 0 0 0 0
0 0 0 0 0 0 0 0 0 0 0 0 0 0 0 0 0 0 0 0 0 0 0 0 0 0 0 0 0 0 0 0 0 0 0 0 0 0 0 0 0 0 0 0
0 0 0 0 0 0 0 0 0 0 0 0 0 0 0 0 0 0 0 0 0 0 0 0 0 0 0 0 0 0 0 0 0 0 0 0 0 0 0 0 0 0 0 0
0 0 0 0 0 0 0 0 0 0 0 0 0 0 0 0 0 0 0 0 0 0 0 0 0 0 0 0 0 0 0 0 0 0 0 0 0 0 0 0 0 0 0 0
0 0 0 0 0 0 0 0 0 0 0 0 0 0 0 0 0 0 0 0 0 0 0 0 0 0 0 0 0 0 0 0 0 0 0 0 0 0 0 0 0 0 0 0
0 0 0 0 0 0 0 0 0 0 0 0 0 0 0 0 0 0 0 0 0 0 0 0 0 0 0 0 0 0 0 0 0 0 0 0 0 0 0 0 0 0 0 0
0 0 0 0 0 0 0 0 0 0 0 0 0 0 0 0 0 0 0 0 0 0 0 0 0 0 0 0 0 0 0 0 0 0 0 0 0 0 0 0 0 0 0 0
0 0 0 0 0 0 0 0 0 0 0 0 0 0 0 0 0 0 0 0 0 0 0 0 0 0 0 0 0 0 0 0 0 0 0 0 0 0 0 0 0 0 0 0
0 0 0 0 0 0 0 0 0 0 0 0 0 0 0 0 0 0 0 0 0 0 0 0 0 0 0 0 0 0 0 0 0 0 0 0 0 0 0 0 0 0 0 0
0 0 0 0 0 0 0 0 0 0 0 0 0 0 0 0 0 0 0 0 0 0 0 0 0 0 0 0 0 0 0 0 0 0 0 0 0 0 0 0 0 0 0 0
0 0 0 0 0 0 0 0 0 0 0 0 0 0 0 0 0 0 0 0 0 0 0 0 0 0 0 0 0 0 0 0 0 0 0 0 0 0 0 0 0 0 0 0
0 0 0 0 0 0 0 0 0 0 0 0 0 0 0 0 0 0 0 0 0 0 0 0 0 0 0 0 0 0 0 0 0 0 0 0 0 0 0 0 0 0 0 0
0 0 0 0 0 0 0 0 0 0 0 0 0 0 0 0 0 0 0 0 0 0 0 0 0 0 0 0 0 0 0 0 0 0 0 0 0 0 0 0 0 0 0 0
0 0 0 0 0 0 0 0 0 0 0 0 0 0 0 0 0 0 0 0 0 0 0 0 0 0 0 0 0 0 0 0 0 0 0 0 0 0 0 0 0 0 0 0
0 0 0 0 0 0 0 0 0 0 0 0 0 0 0 0 0 0 0 0 0 0 0 0 0 0 0 0 0 0 0 0 0 0 0 0 0 0 0 0 0 0 0 0
0 0 0 0 0 0 0 0 0 0 0 0 0 0 0 0 0 0 0 0 0 0 0 0 0 0 0 0 0 0 0 0 0 0 0 0 0 0 0 0 0 0 0 0
0 0 0 0 0 0 0 0 0 0 0 0 0 0 0 0 0 0 0 0 0 0 0 0 0 0 0 0 0 0 0 0 0 0 0 0 0 0 0 0 0 0 0 0
0 0 0 0 0 0 0 0 0 0 0 0 0 0 0 0 0 0 0 0 0 0 0 0 0 0 0 0 0 0 0 0 0 0 0 0 0 0 0 0 0 0 0 0
0 0 0 0 0 0 0 0 0 0 0 0 0 0 0 0 0 0 0 0 0 0 0 0 0 0 0 0 0 0 0 0 0 0 0 0 0 0 0 0 0 0 0 0
0 0 0 0 0 0 0 0 0 0 0 0 0 0 0 0 0 0 0 0 0 0 0 0 0 0 0 0 0 0 0 0 0 0 0 0 0 0 0 0 0 0 0 0
0 0 0 0 0 0 0 0 0 0 0 0 0 0 0 0 0 0 0 0 0 0 0 0 0 0 0 0 0 0 0 0 0 0 0 0 0 0 0 0 0 0 0 0
Wind_Speed
3 2 5 7 9 7 5 7 12 12 9 8 10 13 13 10 7 7 7 6 7 7 6 3 2 3 3 4 5 6 6 5 4 3 4 4 5 5 6 6 7 9 9 10
2 6 9 7 6 8 9 11 11 11 6 6 8 12 10 8 7 6 6 6 5 4 3 1 1 1 2 4 5 6 5 5 5 4 4 3 3 4 4 5 6 7 8 8
6 6 4 6 7 8 9 9 8 9 9 5 5 8 5 6 4 3 3 3 2 2 2 2 1 0 2 3 4 3 3 3 5 4 3 3 3 3 4 5 5 6 7 7
6 6 5 6 7 7 7 6 8 8 5 4 3 5 6 8 7 6 6 5 4 4 3 3 2 2 1 1 1 2 2 2 2 4 4 5 4 4 4 5 5 5 6 6
5 4 4 5 6 5 6 4 5 6 4 4 2 2 6 7 8 9 8 7 7 6 4 4 4 4 4 3 2 2 1 0 1 2 4 5 3 3 3 4 6 5 4 5
6 3 3 4 4 4 4 3 4 2 1 2 2 1 4 6 9 9 9 9 9 8 7 8 8 8 8 8 6 4 3 2 1 0 1 3 3 3 5 5 6 5 3 3
3 2 3 2 2 1 1 0 2 2 1 1 2 1 3 7 8 7 8 10 10 10 10 11 12 11 10 10 9 7 6 5 3 3 2 2 2 3 3 4 5 5 3 3
1 4 3 3 3 2 1 2 1 0 0 1 3 3 3 6 6 7 8 9 11 12 12 13 12 11 11 11 10 9 9 8 8 6 5 4 4 2 2 2 2 3 2 2
1 3 3 3 3 2 1 2 3 1 0 1 2 2 2 6 7 9 10 11 11 11 12 12 12 12 11 12 11 11 11 10 10 9 8 7 7 5 4 4 3 2 1 1
2 2 4 3 1 2 2 2 1 1 0 1 1 2 4 5 6 7 9 9 9 9 10 10 10 11 11 11 11 12 13 12 11 10 9 8 8 7 5 5 4 3 2 1
1 0 3 1 1 2 1 1 1 1 1 2 1 2 2 2 3 5 6 7 8 9 9 9 9 9 10 10 11 12 12 12 12 11 10 10 9 8 8 7 6 4 3 2
1 1 2 4 3 2 2 2 1 1 0 2 3 0 2 3 4 5 6 6 7 7 7 8 9 9 10 11 11 11 11 11 10 10 10 10 9 9 9 8 8 7 6 4
0 2 2 5 5 4 2 3 1 2 3 2 3 1 1 4 4 5 5 5 5 6 7 8 8 9 9 9 9 9 9 9 9 9 9 10 10 10 9 9 8 7 6 6
2 2 2 3 3 2 3 4 2 3 3 2 2 4 3 4 4 3 4 4 4 4 5 5 6 6 6 6 7 8 8 8 8 8 8 9 9 8 8 8 8 7 7 6
3 2 1 1 1 1 2 4 5 3 2 4 5 5 5 5 4 3 3 3 4 3 4 4 4 4 5 6 6 6 7 7 7 7 8 7 7 7 7 7 7 7 7 6
2 2 2 3 2 3 3 5 4 3 3 5 6 2 2 4 4 3 3 3 3 2 2 3 3 4 5 5 5 6 6 6 6 6 6 6 6 7 7 7 7 7 7 7
1 2 2 2 4 3 3 3 2 1 1 3 4 4 5 4 5 5 4 4 3 2 1 1 1 2 2 3 3 4 4 5 5 5 6 6 6 7 7 7 7 7 7 6
2 3 2 0 3 1 4 2 1 2 1 1 3 4 6 5 4 3 3 4 3 2 1 0 1 1 2 2 2 3 3 4 4 4 5 5 5 6 6 6 7 7 6 6
2 4 2 2 0 4 4 2 2 2 2 2 5 5 4 4 3 1 1 3 3 2 1 1 0 1 1 2 2 2 3 4 4 5 5 5 5 6 6 6 6 5 5 6
3 4 4 2 1 4 3 2 2 3 3 4 6 7 6 6 2 4 3 3 2 1 1 0 0 1 2 3 3 3 4 4 5 5 5 5 5 5 6 6 6 5 5 6
2 2 2 2 3 6 3 2 4 3 6 4 6 7 7 6 5 3 4 2 2 1 0 0 1 1 2 3 3 4 4 5 6 6 6 5 5 6 6 6 5 6 6 6
4 3 3 3 3 7 4 5 6 7 2 4 5 5 6 4 3 4 3 3 2 1 0 0 1 2 3 3 3 4 6 6 6 6 6 6 6 6 6 6 6 6 6 7
5 7 5 7 7 4 4 6 4 4 4 4 5 5 6 5 4 4 3 2 2 1 1 1 2 3 4 4 3 5 6 6 6 6 7 7 7 6 6 6 7 6 5 5
4 3 3 4 6 5 4 3 2 4 5 4 5 6 6 6 5 4 3 3 2 2 2 2 2 4 5 5 5 5 7 6 6 7 7 7 7 7 6 5 5 5 6 6
6 4 3 5 6 3 4 6 5 4 4 5 4 5 6 6 5 4 4 3 3 2 2 2 3 4 6 6 6 6 6 6 6 7 7 7 7 7 7 6 6 7 6 8
7 9 8 9 8 7 6 6 7 7 7 7 6 4 4 5 5 4 3 3 2 2 2 3 4 5 6 6 7 7 6 5 6 7 7 6 6 6 6 7 8 11 13 17
Wind_Direction
160 150 217 217 211 227 259 273 280 280 281 283 274 282 291 293 286 276 268 266 266 267 268 255 244 216 191 192 189 186 187 186 169 170 182 180 191 195 191 189 188 186 183 181
152 237 235 228 234 246 256 272 279 288 287 286 281 283 287 295 286 270 268 270 271 287 302 303 298 246 186 188 190 182 187 188 181 185 187 181 180 188 190 187 187 188 183 181
214 241 242 232 244 251 255 252 263 278 305 289 297 299 311 320 323 328 334 317 316 294 304 326 319 236 156 177 183 172 178 189 192 185 176 173 177 168 187 185 185 192 187 181
239 253 253 245 245 236 264 245 255 277 303 301 312 303 323 335 349 10 6 6 1 354 6 17 23 48 88 134 135 133 146 195 205 182 179 176 190 184 189 178 175 181 186 183
244 237 237 244 241 217 243 271 272 275 279 286 282 261 314 344 356 360 5 13 10 16 33 44 39 45 54 48 59 86 108 132 226 195 179 174 180 177 161 159 162 172 178 182
242 243 229 238 263 234 250 289 282 256 238 294 312 234 335 356 345 349 7 18 22 33 43 46 43 47 47 44 41 49 72 57 35 37 154 160 167 156 151 163 170 174 175 182
294 266 231 219 276 292 168 13 360 2 4 300 328 63 350 345 349 359 15 23 27 38 43 43 42 44 44 42 36 40 55 53 48 60 71 91 126 132 141 159 166 164 168 180
334 305 247 209 213 235 233 180 181 246 287 326 6 27 346 346 7 27 37 40 41 42 43 43 40 41 43 40 37 41 46 46 44 45 50 52 67 89 83 88 125 143 157 174
218 284 281 240 219 207 231 221 206 194 198 54 14 4 346 6 32 40 43 45 44 44 44 42 39 39 39 37 38 40 44 45 43 41 42 43 42 48 52 55 75 101 104 116
186 270 282 284 308 268 223 234 161 178 135 80 32 8 348 354 23 41 45 46 44 46 46 43 41 40 40 39 40 40 40 41 40 38 38 39 39 37 40 47 46 50 54 61
191 263 304 326 265 275 286 294 249 214 159 136 105 355 346 37 53 62 55 51 49 47 44 42 40 39 40 40 39 38 36 37 35 32 33 35 34 32 34 35 29 24 28 31
227 134 290 278 266 239 224 264 225 155 37 86 119 36 22 86 80 80 70 58 53 50 45 41 40 40 39 38 37 37 34 34 31 29 32 32 30 31 31 27 20 17 16 10
99 93 9 345 342 348 338 317 297 136 104 106 124 174 78 98 87 82 80 68 57 52 47 41 40 37 34 33 33 35 33 30 27 28 30 29 26 25 21 16 12 11 9 3
107 82 154 188 250 293 322 334 350 110 116 126 148 152 158 139 120 101 92 84 69 57 51 46 41 34 32 32 30 30 28 24 26 28 29 27 21 18 14 9 7 5 3 1
98 73 10 320 315 40 22 6 22 59 129 149 162 160 177 169 154 142 127 108 88 71 58 46 38 30 27 28 26 26 22 18 20 25 26 20 12 10 10 7 3 359 359 355
79 105 27 353 1 29 24 7 14 39 72 107 119 151 165 145 135 133 140 129 113 96 71 48 35 27 19 16 15 16 14 10 14 18 15 8 7 7 5 359 355 355 352 347
65 109 77 306 317 9 336 316 345 48 80 149 175 192 153 152 166 171 171 158 156 157 123 59 33 13 360 356 6 5 356 359 7 6 0 358 357 356 353 350 350 347 341 338
125 104 116 12 28 299 264 284 181 115 359 162 147 151 162 166 160 155 163 160 163 162 144 11 356 352 348 351 352 347 352 355 352 348 344 342 343 340 338 340 338 331 327 327
133 136 115 103 63 280 283 241 188 168 281 217 157 149 140 123 91 349 204 164 169 172 170 199 254 309 340 334 326 338 345 343 342 336 330 328 329 328 328 329 322 315 316 316
66 92 114 133 178 241 244 185 149 98 276 228 168 163 158 139 168 241 195 150 138 125 129 132 10 5 340 321 332 347 337 336 328 320 315 313 315 316 315 312 308 306 306 303
7 35 116 169 230 262 241 147 111 168 243 186 168 169 167 183 203 189 150 146 146 143 145 85 33 341 314 320 340 333 324 313 305 308 310 313 313 309 304 304 303 305 305 306
194 189 204 171 213 257 190 145 185 214 183 150 160 167 167 171 146 144 153 158 160 158 299 0 339 315 312 323 331 317 305 298 303 307 308 307 306 306 309 303 301 300 301 303
205 196 194 197 219 246 197 202 210 167 162 171 164 165 155 156 170 174 179 185 202 223 255 274 284 301 307 310 307 298 294 299 302 301 298 296 298 296 295 295 299 301 297 294
271 189 196 260 262 246 230 222 198 178 177 171 160 157 158 167 177 184 188 201 217 233 249 265 290 299 300 302 300 286 292 300 302 301 300 298 298 297 295 289 287 289 289 289
237 193 210 256 268 274 251 217 200 176 153 145 147 159 166 165 178 186 196 211 223 242 262 271 279 285 290 297 296 295 297 301 300 298 296 296 293 291 293 289 281 284 272 275
206 187 188 226 218 198 226 207 180 170 176 171 160 158 163 170 180 184 199 212 223 249 271 285 286 287 291 296 298 299 300 298 296 297 297 296 294 292 291 292 295 289 288 293